LXJ230 KLAX-KSAN

Flight info

Callsign LXJ230
Flight time 0h 33m
Altitude 27000
Route LAXX1 MZB
Aircraft C25C/M-BGS/L

Departure

Time 2026-04-25 22:20
Airport Los Angeles International Airport (KLAX)

Arrival

Time 2026-04-25 22:53
Airport San Diego International Airport (KSAN)
Time Latitude Longitude Altitude Speed Heading
2026-04-25 22:04 33.93333 -118.39320 119 ft 0 kts 154°
2026-04-25 22:13 33.93331 -118.39320 119 ft 5 kts 157°
2026-04-25 22:13 33.93333 -118.39320 119 ft 1 kts 155°
2026-04-25 22:13 33.93355 -118.39304 119 ft 2 kts 348°
2026-04-25 22:14 33.93400 -118.39316 119 ft 16 kts 347°
2026-04-25 22:14 33.93498 -118.39325 119 ft 8 kts 39°
2026-04-25 22:14 33.93513 -118.39256 119 ft 11 kts 83°
2026-04-25 22:14 33.93527 -118.39118 119 ft 22 kts 82°
2026-04-25 22:15 33.93548 -118.38910 119 ft 28 kts 85°
2026-04-25 22:15 33.93573 -118.38666 119 ft 30 kts 81°
2026-04-25 22:15 33.93596 -118.38435 117 ft 27 kts 84°
2026-04-25 22:16 33.93603 -118.38361 119 ft 0 kts 81°
2026-04-25 22:17 33.93606 -118.38338 119 ft 12 kts 80°
2026-04-25 22:17 33.93664 -118.38279 119 ft 11 kts
2026-04-25 22:17 33.93722 -118.38293 119 ft 6 kts 322°
2026-04-25 22:18 33.93732 -118.38331 119 ft 5 kts 265°
2026-04-25 22:18 33.93731 -118.38345 119 ft 0 kts 264°
2026-04-25 22:19 33.93707 -118.38567 117 ft 74 kts 263°
2026-04-25 22:20 33.93620 -118.39552 404 ft 144 kts 263°
2026-04-25 22:20 33.93560 -118.40863 1102 ft 171 kts 263°
2026-04-25 22:20 33.93449 -118.42427 1757 ft 200 kts 263°
2026-04-25 22:20 33.93331 -118.44097 2319 ft 204 kts 263°
2026-04-25 22:21 33.93166 -118.45872 2654 ft 221 kts 262°
2026-04-25 22:21 33.92974 -118.47765 2977 ft 236 kts 262°
2026-04-25 22:21 33.92758 -118.49793 2997 ft 250 kts 262°
2026-04-25 22:21 33.92531 -118.51859 3270 ft 245 kts 261°
2026-04-25 22:22 33.92106 -118.53805 3629 ft 238 kts 246°
2026-04-25 22:22 33.91225 -118.55438 4058 ft 230 kts 232°
2026-04-25 22:22 33.90264 -118.56952 4467 ft 225 kts 232°
2026-04-25 22:22 33.89298 -118.58411 4868 ft 222 kts 230°
2026-04-25 22:23 33.88199 -118.59742 5011 ft 230 kts 217°
2026-04-25 22:23 33.86743 -118.60501 5381 ft 228 kts 192°
2026-04-25 22:23 33.85172 -118.60290 5719 ft 232 kts 167°
2026-04-25 22:23 33.83605 -118.60042 5957 ft 232 kts 181°
2026-04-25 22:24 33.81983 -118.60044 6581 ft 240 kts 185°
2026-04-25 22:24 33.80308 -118.60203 7827 ft 236 kts 190°
2026-04-25 22:24 33.78741 -118.60463 9469 ft 225 kts 191°
2026-04-25 22:24 33.77195 -118.60739 10690 ft 228 kts 192°
2026-04-25 22:25 33.75607 -118.61001 11831 ft 230 kts 192°
2026-04-25 22:25 33.73987 -118.61222 12854 ft 242 kts 192°
2026-04-25 22:25 33.72162 -118.61472 12994 ft 285 kts 191°
2026-04-25 22:25 33.70070 -118.61743 13137 ft 318 kts 191°
2026-04-25 22:26 33.67818 -118.62033 13144 ft 323 kts 190°
2026-04-25 22:26 33.65632 -118.62295 13092 ft 310 kts 189°
2026-04-25 22:26 33.63512 -118.62525 13032 ft 301 kts 189°
2026-04-25 22:26 33.61483 -118.62749 13035 ft 292 kts 191°
2026-04-25 22:27 33.59460 -118.63032 13040 ft 294 kts 191°
2026-04-25 22:27 33.57420 -118.63318 13041 ft 297 kts 191°
2026-04-25 22:27 33.55360 -118.63613 13040 ft 299 kts 191°
2026-04-25 22:27 33.53260 -118.63671 13041 ft 309 kts 176°
2026-04-25 22:28 33.51163 -118.62921 13041 ft 321 kts 163°
2026-04-25 22:28 33.49275 -118.61374 13043 ft 338 kts 144°
2026-04-25 22:28 33.47808 -118.59109 13043 ft 355 kts 124°
2026-04-25 22:28 33.46835 -118.56368 13052 ft 357 kts 120°
2026-04-25 22:29 33.45878 -118.53626 13067 ft 357 kts 118°
2026-04-25 22:29 33.44955 -118.50861 13072 ft 357 kts 119°
2026-04-25 22:29 33.44013 -118.48096 13069 ft 359 kts 118°
2026-04-25 22:30 33.42089 -118.42618 13038 ft 361 kts 118°
2026-04-25 22:30 33.41160 -118.39828 13023 ft 359 kts 119°
2026-04-25 22:30 33.40202 -118.37080 13033 ft 356 kts 117°
2026-04-25 22:30 33.39618 -118.35260 13026 ft 351 kts 118°
2026-04-25 22:31 33.38369 -118.31708 13021 ft 342 kts 120°
2026-04-25 22:31 33.37455 -118.29092 13021 ft 339 kts 120°
2026-04-25 22:31 33.36555 -118.26496 13016 ft 336 kts 120°
2026-04-25 22:31 33.35678 -118.23922 13015 ft 333 kts 120°
2026-04-25 22:32 33.34787 -118.21371 13014 ft 331 kts 120°
2026-04-25 22:32 33.33910 -118.18827 13011 ft 330 kts 120°
2026-04-25 22:32 33.33027 -118.16298 13010 ft 329 kts 120°
2026-04-25 22:32 33.32156 -118.13769 13006 ft 329 kts 120°
2026-04-25 22:33 33.31357 -118.11236 12995 ft 332 kts 114°
2026-04-25 22:33 33.30684 -118.08597 12992 ft 330 kts 116°
2026-04-25 22:33 33.29842 -118.06069 12989 ft 326 kts 122°
2026-04-25 22:33 33.28901 -118.03602 13004 ft 326 kts 122°
2026-04-25 22:34 33.28009 -118.01115 13020 ft 326 kts 120°
2026-04-25 22:34 33.27134 -117.98608 13020 ft 327 kts 120°
2026-04-25 22:34 33.26245 -117.96053 13023 ft 339 kts 120°
2026-04-25 22:34 33.25309 -117.93439 13028 ft 345 kts 120°
2026-04-25 22:35 33.24371 -117.90765 13038 ft 350 kts 120°
2026-04-25 22:35 33.23417 -117.88070 13041 ft 354 kts 120°
2026-04-25 22:35 33.22458 -117.85345 13039 ft 356 kts 120°
2026-04-25 22:35 33.21484 -117.82624 13042 ft 357 kts 120°
2026-04-25 22:36 33.20534 -117.79926 13031 ft 357 kts 120°
2026-04-25 22:36 33.19559 -117.77192 13034 ft 357 kts 120°
2026-04-25 22:36 33.18593 -117.74458 13037 ft 358 kts 120°
2026-04-25 22:36 33.17617 -117.71735 13040 ft 355 kts 120°
2026-04-25 22:37 33.16667 -117.69047 13043 ft 348 kts 120°
2026-04-25 22:37 33.15728 -117.66403 13019 ft 344 kts 120°
2026-04-25 22:37 33.14797 -117.63794 13017 ft 340 kts 120°
2026-04-25 22:37 33.13872 -117.61205 12935 ft 338 kts 120°
2026-04-25 22:38 33.12950 -117.58627 12777 ft 337 kts 120°
2026-04-25 22:38 33.12036 -117.56062 12584 ft 334 kts 120°
2026-04-25 22:38 33.11127 -117.53526 12378 ft 330 kts 120°
2026-04-25 22:38 33.10237 -117.51019 12177 ft 326 kts 120°
2026-04-25 22:39 33.09341 -117.48531 11975 ft 325 kts 120°
2026-04-25 22:39 33.08459 -117.46061 11763 ft 322 kts 120°
2026-04-25 22:39 33.07575 -117.43618 11561 ft 320 kts 119°
2026-04-25 22:39 33.06709 -117.41183 11363 ft 317 kts 119°
2026-04-25 22:40 33.05840 -117.38783 11163 ft 314 kts 119°
2026-04-25 22:40 33.04991 -117.36406 10961 ft 309 kts 120°
2026-04-25 22:40 33.03965 -117.34239 10750 ft 301 kts 129°
2026-04-25 22:40 33.02807 -117.32172 10538 ft 299 kts 130°
2026-04-25 22:41 33.01630 -117.30140 10324 ft 297 kts 131°
2026-04-25 22:41 33.00442 -117.28123 10115 ft 296 kts 130°
2026-04-25 22:41 32.99247 -117.26130 9899 ft 295 kts 131°
2026-04-25 22:41 32.98059 -117.24143 9672 ft 295 kts 130°
2026-04-25 22:42 32.96862 -117.22193 9404 ft 295 kts 130°
2026-04-25 22:42 32.95649 -117.20209 9093 ft 296 kts 130°
2026-04-25 22:42 32.94424 -117.18232 8785 ft 296 kts 130°
2026-04-25 22:42 32.93222 -117.16258 8558 ft 293 kts 129°
2026-04-25 22:43 32.92040 -117.14311 8373 ft 288 kts 129°
2026-04-25 22:43 32.90901 -117.12378 8315 ft 281 kts 129°
2026-04-25 22:43 32.89771 -117.10470 8048 ft 284 kts 128°
2026-04-25 22:43 32.88631 -117.08540 7781 ft 285 kts 128°
2026-04-25 22:44 32.87466 -117.06606 7408 ft 287 kts 129°
2026-04-25 22:44 32.86290 -117.04722 7175 ft 281 kts 130°
2026-04-25 22:44 32.85126 -117.02896 6785 ft 281 kts 130°
2026-04-25 22:44 32.83946 -117.01087 6466 ft 272 kts 130°
2026-04-25 22:45 32.82806 -116.99319 6171 ft 265 kts 129°
2026-04-25 22:45 32.81710 -116.97593 5850 ft 258 kts 129°
2026-04-25 22:45 32.80625 -116.95900 5398 ft 258 kts 130°
2026-04-25 22:45 32.79532 -116.94225 5070 ft 254 kts 130°
2026-04-25 22:46 32.78459 -116.92580 4779 ft 252 kts 130°
2026-04-25 22:46 32.77369 -116.90974 4604 ft 248 kts 131°
2026-04-25 22:46 32.76267 -116.89416 4430 ft 243 kts 135°
2026-04-25 22:46 32.74928 -116.88264 4297 ft 236 kts 159°
2026-04-25 22:47 32.73365 -116.87928 4223 ft 225 kts 189°
2026-04-25 22:47 32.71883 -116.88245 4237 ft 217 kts 191°
2026-04-25 22:47 32.70395 -116.88518 4210 ft 216 kts 192°
2026-04-25 22:47 32.69012 -116.89155 4156 ft 214 kts 220°
2026-04-25 22:48 32.68236 -116.90600 4214 ft 210 kts 256°
2026-04-25 22:48 32.68016 -116.92316 4215 ft 211 kts 263°
2026-04-25 22:48 32.67891 -116.94074 4111 ft 215 kts 267°
2026-04-25 22:48 32.68020 -116.95847 3969 ft 217 kts 280°
2026-04-25 22:49 32.68360 -116.97609 3797 ft 219 kts 281°
2026-04-25 22:49 32.68706 -116.99378 3589 ft 222 kts 282°
2026-04-25 22:49 32.69110 -117.01153 3337 ft 223 kts 283°
2026-04-25 22:49 32.69528 -117.02895 3166 ft 215 kts 284°
2026-04-25 22:50 32.69932 -117.04586 2944 ft 209 kts 283°
2026-04-25 22:50 32.70296 -117.06223 2740 ft 199 kts 283°
2026-04-25 22:50 32.70671 -117.07755 2515 ft 183 kts 284°
2026-04-25 22:50 32.71016 -117.09090 2319 ft 162 kts 284°
2026-04-25 22:51 32.71317 -117.10285 2112 ft 134 kts 282°
2026-04-25 22:51 32.71546 -117.11253 1793 ft 111 kts 281°
2026-04-25 22:51 32.71729 -117.12120 1435 ft 107 kts 281°
2026-04-25 22:51 32.71919 -117.12983 1171 ft 110 kts 282°
2026-04-25 22:52 32.72129 -117.13857 1003 ft 110 kts 282°
2026-04-25 22:52 32.72346 -117.14718 786 ft 109 kts 281°
2026-04-25 22:52 32.72542 -117.15599 625 ft 110 kts 278°
2026-04-25 22:52 32.72691 -117.16164 523 ft 107 kts 279°
2026-04-25 22:53 32.72947 -117.17314 197 ft 107 kts 283°
2026-04-25 22:53 32.73152 -117.18127 38 ft 99 kts 285°
2026-04-25 22:53 32.73316 -117.18802 17 ft 62 kts 288°
2026-04-25 22:53 32.73371 -117.18997 19 ft 27 kts 291°
2026-04-25 22:54 32.73436 -117.19083 17 ft 10 kts 16°
2026-04-25 22:54 32.73470 -117.19055 16 ft 0 kts 52°
2026-04-25 22:54 32.73472 -117.18953 15 ft 25 kts 110°
2026-04-25 22:54 32.73418 -117.18768 16 ft 16 kts 104°
2026-04-25 22:55 32.73393 -117.18646 22 ft 12 kts 104°
2026-04-25 22:55 32.73382 -117.18599 23 ft 7 kts 107°
2026-04-25 22:55 32.73368 -117.18541 24 ft 7 kts 105°
2026-04-25 22:55 32.73358 -117.18498 27 ft 5 kts 106°
2026-04-25 22:56 32.73347 -117.18455 25 ft 6 kts 107°
2026-04-25 22:56 32.73336 -117.18411 25 ft 4 kts 107°
2026-04-25 22:56 32.73333 -117.18401 25 ft 0 kts 106°
2026-04-25 22:57 32.73327 -117.18377 25 ft 8 kts 107°
2026-04-25 22:57 32.73304 -117.18280 23 ft 15 kts 105°
2026-04-25 22:57 32.73276 -117.18151 24 ft 17 kts 104°
2026-04-25 22:57 32.73259 -117.18041 24 ft 12 kts 86°
2026-04-25 22:58 32.73276 -117.17974 24 ft 5 kts 31°
2026-04-25 22:58 32.73335 -117.17958 26 ft 9 kts 18°
2026-04-25 22:58 32.73395 -117.17935 27 ft 10 kts 14°
2026-04-25 22:58 32.73439 -117.17920 27 ft 0 kts 26°